Location: Sobotiste
(48.7170°N, 17.4000°E)
Time: 17:38:16
(UTC+02:00)

MOZHAYETS 4 - Pass Details

Date: 20 March 2026
Orbit: 642 x 659 km, 98.3° (Epoch: 15 April)

Event Time Altitude Azimuth Distance (km) Brightness Sun altitude
Rises 03:33:46 0° 129° (SE) 2,981 11.4 -23.0°
Reaches altitude 10° 03:36:19 10° 115° (ESE) 2,072 10.7 -22.6°
Maximum altitude 03:39:55 24° 62° (ENE) 1,367 10.1 -22.1°
Drops below altitude 10° 03:43:31 10° 10° (N) 2,078 10.7 -21.6°
Sets 03:46:04 0° 356° (N) 2,991 11.4 -21.2°
